CCR1023 SBCF-SBGR

Flight info

Callsign CCR1023
Flight time 1h 5m
Altitude 30000
Route DEUCA UZ21 VUNOX
Aircraft B77L/H-SDE1E2E3FGHIJ2J4J5J7M1M3P2RWXYZ/LB1D1

Departure

Time 2026-05-06 03:19
Airport Tancredo Neves International Airport (SBCF)

Arrival

Time 2026-05-06 04:24
Airport São Paulo/Guarulhos–Governor André Franco Montoro International Airport (SBGR)
Time Latitude Longitude Altitude Speed Heading
2026-05-06 02:45 -19.64023 -43.95863 2728 ft 0 kts 50°
2026-05-06 03:05 -19.64026 -43.95868 2729 ft 2 kts 52°
2026-05-06 03:05 -19.64034 -43.95879 2729 ft 2 kts 51°
2026-05-06 03:06 -19.64044 -43.95891 2729 ft 2 kts 34°
2026-05-06 03:06 -19.64056 -43.95896 2729 ft 2 kts 360°
2026-05-06 03:06 -19.64069 -43.95894 2729 ft 2 kts 327°
2026-05-06 03:06 -19.64081 -43.95883 2729 ft 2 kts 319°
2026-05-06 03:07 -19.64093 -43.95872 2729 ft 2 kts 319°
2026-05-06 03:07 -19.64105 -43.95861 2729 ft 2 kts 319°
2026-05-06 03:07 -19.64117 -43.95850 2729 ft 2 kts 319°
2026-05-06 03:07 -19.64120 -43.95847 2729 ft 0 kts 319°
2026-05-06 03:10 -19.64118 -43.95849 2729 ft 3 kts 319°
2026-05-06 03:11 -19.64085 -43.95879 2729 ft 11 kts 319°
2026-05-06 03:11 -19.64090 -43.95947 2729 ft 13 kts 249°
2026-05-06 03:11 -19.64049 -43.96029 2729 ft 17 kts 322°
2026-05-06 03:11 -19.63957 -43.96111 2729 ft 17 kts 319°
2026-05-06 03:12 -19.63859 -43.96199 2729 ft 20 kts 319°
2026-05-06 03:12 -19.63744 -43.96306 2729 ft 23 kts 317°
2026-05-06 03:12 -19.63627 -43.96416 2729 ft 24 kts 319°
2026-05-06 03:12 -19.63518 -43.96516 2729 ft 20 kts 319°
2026-05-06 03:13 -19.63422 -43.96604 2729 ft 19 kts 319°
2026-05-06 03:13 -19.63320 -43.96697 2729 ft 22 kts 319°
2026-05-06 03:13 -19.63196 -43.96813 2729 ft 25 kts 319°
2026-05-06 03:13 -19.63084 -43.96917 2729 ft 27 kts 319°
2026-05-06 03:14 -19.62957 -43.97034 2729 ft 21 kts 319°
2026-05-06 03:14 -19.62889 -43.97096 2729 ft 9 kts 319°
2026-05-06 03:14 -19.62883 -43.97154 2729 ft 9 kts 243°
2026-05-06 03:14 -19.62901 -43.97178 2729 ft 0 kts 230°
2026-05-06 03:17 -19.62905 -43.97183 2729 ft 3 kts 230°
2026-05-06 03:17 -19.62930 -43.97215 2729 ft 8 kts 230°
2026-05-06 03:17 -19.62963 -43.97241 2729 ft 5 kts 181°
2026-05-06 03:18 -19.62998 -43.97225 2729 ft 5 kts 139°
2026-05-06 03:18 -19.63009 -43.97214 2729 ft 10 kts 139°
2026-05-06 03:18 -19.63211 -43.97027 2729 ft 72 kts 139°
2026-05-06 03:18 -19.63756 -43.96525 2729 ft 134 kts 139°
2026-05-06 03:19 -19.64601 -43.95738 2758 ft 185 kts 138°
2026-05-06 03:19 -19.65610 -43.94810 3358 ft 194 kts 139°
2026-05-06 03:19 -19.66490 -43.93999 4084 ft 197 kts 138°
2026-05-06 03:19 -19.67527 -43.93039 4808 ft 199 kts 138°
2026-05-06 03:20 -19.69518 -43.91218 6022 ft 203 kts 142°
2026-05-06 03:20 -19.70740 -43.90685 6333 ft 218 kts 169°
2026-05-06 03:20 -19.72288 -43.90955 6645 ft 237 kts 201°
2026-05-06 03:21 -19.73604 -43.92014 7317 ft 236 kts 220°
2026-05-06 03:21 -19.74604 -43.93405 7955 ft 243 kts 238°
2026-05-06 03:21 -19.75184 -43.95105 8564 ft 247 kts 253°
2026-05-06 03:21 -19.75440 -43.96926 9118 ft 252 kts 264°
2026-05-06 03:22 -19.75515 -43.98833 9543 ft 267 kts 267°
2026-05-06 03:22 -19.75536 -44.00858 9930 ft 282 kts 269°
2026-05-06 03:22 -19.75561 -44.02994 10379 ft 297 kts 269°
2026-05-06 03:22 -19.75613 -44.05255 10843 ft 315 kts 268°
2026-05-06 03:23 -19.75691 -44.07648 11269 ft 334 kts 268°
2026-05-06 03:23 -19.75782 -44.10145 11701 ft 353 kts 268°
2026-05-06 03:23 -19.75879 -44.12740 12125 ft 370 kts 268°
2026-05-06 03:23 -19.75984 -44.15534 12670 ft 384 kts 268°
2026-05-06 03:24 -19.76092 -44.18404 13313 ft 394 kts 268°
2026-05-06 03:24 -19.76201 -44.21341 14012 ft 402 kts 268°
2026-05-06 03:24 -19.76303 -44.24324 14757 ft 407 kts 268°
2026-05-06 03:24 -19.76405 -44.27358 15500 ft 412 kts 268°
2026-05-06 03:25 -19.76514 -44.30412 16209 ft 416 kts 267°
2026-05-06 03:25 -19.76623 -44.33072 16796 ft 420 kts 267°
2026-05-06 03:25 -19.76740 -44.36050 17439 ft 424 kts 267°
2026-05-06 03:25 -19.77067 -44.39177 17990 ft 428 kts 256°
2026-05-06 03:26 -19.78095 -44.41935 18524 ft 431 kts 240°
2026-05-06 03:26 -19.79713 -44.44189 19043 ft 433 kts 225°
2026-05-06 03:26 -19.82054 -44.46211 19611 ft 436 kts 213°
2026-05-06 03:26 -19.84686 -44.47823 20167 ft 438 kts 206°
2026-05-06 03:27 -19.87047 -44.49024 20640 ft 441 kts 204°
2026-05-06 03:27 -19.89850 -44.50385 21171 ft 444 kts 204°
2026-05-06 03:27 -19.92653 -44.51792 21684 ft 447 kts 205°
2026-05-06 03:27 -19.95401 -44.53235 22167 ft 451 kts 206°
2026-05-06 03:28 -19.98202 -44.54745 22648 ft 453 kts 206°
2026-05-06 03:28 -20.01030 -44.56269 23138 ft 456 kts 205°
2026-05-06 03:28 -20.03838 -44.57776 23607 ft 458 kts 205°
2026-05-06 03:28 -20.06694 -44.59307 24053 ft 461 kts 205°
2026-05-06 03:29 -20.09510 -44.60801 24487 ft 463 kts 204°
2026-05-06 03:29 -20.12319 -44.62107 24896 ft 465 kts 201°
2026-05-06 03:29 -20.15331 -44.63381 25324 ft 466 kts 199°
2026-05-06 03:29 -20.18382 -44.64585 25741 ft 469 kts 199°
2026-05-06 03:30 -20.21454 -44.65782 26141 ft 471 kts 199°
2026-05-06 03:30 -20.24492 -44.66998 26509 ft 474 kts 200°
2026-05-06 03:30 -20.27575 -44.68258 26882 ft 476 kts 200°
2026-05-06 03:30 -20.30672 -44.69533 27259 ft 478 kts 200°
2026-05-06 03:31 -20.33781 -44.70816 27627 ft 480 kts 200°
2026-05-06 03:31 -20.36905 -44.72106 27981 ft 482 kts 200°
2026-05-06 03:31 -20.39606 -44.73221 28271 ft 484 kts 200°
2026-05-06 03:31 -20.42767 -44.74526 28578 ft 486 kts 200°
2026-05-06 03:32 -20.45509 -44.75707 28894 ft 487 kts 202°
2026-05-06 03:32 -20.48560 -44.77285 29371 ft 485 kts 207°
2026-05-06 03:32 -20.51476 -44.79080 29941 ft 483 kts 210°
2026-05-06 03:32 -20.53981 -44.80803 30287 ft 483 kts 213°
2026-05-06 03:33 -20.59371 -44.85067 30336 ft 481 kts 217°
2026-05-06 03:33 -20.64713 -44.89393 30340 ft 482 kts 215°
2026-05-06 03:34 -20.70083 -44.93590 30328 ft 480 kts 215°
2026-05-06 03:34 -20.74338 -44.96923 30322 ft 480 kts 215°
2026-05-06 03:35 -20.79838 -45.01241 30318 ft 481 kts 215°
2026-05-06 03:35 -20.84862 -45.05198 30261 ft 476 kts 215°
2026-05-06 03:36 -20.90116 -45.09336 30253 ft 474 kts 215°
2026-05-06 03:36 -20.95380 -45.13480 30262 ft 474 kts 215°
2026-05-06 03:37 -21.00659 -45.17645 30261 ft 475 kts 215°
2026-05-06 03:37 -21.05974 -45.21842 30254 ft 474 kts 215°
2026-05-06 03:38 -21.11287 -45.26041 30254 ft 474 kts 215°
2026-05-06 03:38 -21.16449 -45.30125 30254 ft 475 kts 215°
2026-05-06 03:39 -21.21544 -45.34139 30254 ft 475 kts 215°
2026-05-06 03:39 -21.26793 -45.38276 30254 ft 475 kts 215°
2026-05-06 03:40 -21.32091 -45.42470 30255 ft 475 kts 215°
2026-05-06 03:40 -21.37024 -45.46387 30255 ft 475 kts 215°
2026-05-06 03:41 -21.42313 -45.50590 30255 ft 475 kts 215°
2026-05-06 03:41 -21.47625 -45.54813 30255 ft 475 kts 215°
2026-05-06 03:42 -21.52472 -45.58647 30255 ft 475 kts 215°
2026-05-06 03:42 -21.57814 -45.62838 30256 ft 475 kts 215°
2026-05-06 03:43 -21.62935 -45.66865 30256 ft 475 kts 215°
2026-05-06 03:43 -21.68388 -45.71159 30257 ft 475 kts 215°
2026-05-06 03:44 -21.72827 -45.74658 30257 ft 476 kts 215°
2026-05-06 03:44 -21.78168 -45.78868 30257 ft 476 kts 215°
2026-05-06 03:45 -21.83993 -45.83445 30256 ft 477 kts 215°
2026-05-06 03:45 -21.86647 -45.85537 30253 ft 466 kts 215°
2026-05-06 03:45 -21.88336 -45.86870 30252 ft 456 kts 215°
2026-05-06 03:46 -21.90861 -45.88861 30149 ft 445 kts 214°
2026-05-06 03:46 -21.93347 -45.90815 29807 ft 439 kts 215°
2026-05-06 03:46 -21.95794 -45.92746 29375 ft 435 kts 215°
2026-05-06 03:46 -21.98236 -45.94679 28821 ft 435 kts 215°
2026-05-06 03:47 -22.00673 -45.96609 28317 ft 433 kts 215°
2026-05-06 03:47 -22.03094 -45.98529 27813 ft 431 kts 215°
2026-05-06 03:47 -22.05504 -46.00440 27326 ft 429 kts 215°
2026-05-06 03:47 -22.07905 -46.02345 26837 ft 427 kts 215°
2026-05-06 03:48 -22.10290 -46.04238 26354 ft 425 kts 215°
2026-05-06 03:48 -22.12666 -46.06123 25870 ft 423 kts 215°
2026-05-06 03:48 -22.15007 -46.07980 25396 ft 421 kts 215°
2026-05-06 03:48 -22.17316 -46.09811 24926 ft 420 kts 215°
2026-05-06 03:49 -22.19717 -46.11714 24440 ft 418 kts 215°
2026-05-06 03:49 -22.21900 -46.13450 23995 ft 416 kts 215°
2026-05-06 03:49 -22.24117 -46.15213 23545 ft 415 kts 216°
2026-05-06 03:49 -22.26438 -46.17061 23072 ft 413 kts 216°
2026-05-06 03:50 -22.28751 -46.18888 22602 ft 410 kts 213°
2026-05-06 03:50 -22.31159 -46.20384 22153 ft 407 kts 204°
2026-05-06 03:50 -22.33860 -46.21457 21673 ft 404 kts 195°
2026-05-06 03:50 -22.36592 -46.22149 21206 ft 402 kts 190°
2026-05-06 03:51 -22.39346 -46.22621 20748 ft 400 kts 187°
2026-05-06 03:51 -22.42103 -46.22979 20294 ft 398 kts 186°
2026-05-06 03:51 -22.44842 -46.23350 19839 ft 396 kts 186°
2026-05-06 03:51 -22.47377 -46.23731 19420 ft 394 kts 187°
2026-05-06 03:52 -22.50082 -46.24155 18970 ft 392 kts 187°
2026-05-06 03:52 -22.52777 -46.24574 18531 ft 390 kts 187°
2026-05-06 03:52 -22.55396 -46.24987 18100 ft 388 kts 187°
2026-05-06 03:52 -22.58044 -46.25395 18234 ft 385 kts 187°
2026-05-06 03:53 -22.60710 -46.25807 18226 ft 389 kts 187°
2026-05-06 03:53 -22.63388 -46.26222 18029 ft 388 kts 187°
2026-05-06 03:53 -22.66048 -46.26636 17748 ft 385 kts 187°
2026-05-06 03:53 -22.68691 -46.27047 17396 ft 382 kts 187°
2026-05-06 03:54 -22.71306 -46.27454 16977 ft 379 kts 187°
2026-05-06 03:54 -22.73553 -46.27807 16606 ft 377 kts 188°
2026-05-06 03:54 -22.76104 -46.28429 16164 ft 375 kts 196°
2026-05-06 03:54 -22.78536 -46.29415 15752 ft 373 kts 202°
2026-05-06 03:55 -22.80900 -46.30556 15415 ft 368 kts 203°
2026-05-06 03:55 -22.83174 -46.31719 15364 ft 355 kts 205°
2026-05-06 03:55 -22.85342 -46.32924 15299 ft 344 kts 207°
2026-05-06 03:55 -22.87407 -46.34151 15237 ft 332 kts 208°
2026-05-06 03:56 -22.89372 -46.35370 15094 ft 317 kts 209°
2026-05-06 03:56 -22.91222 -46.36533 14729 ft 307 kts 209°
2026-05-06 03:56 -22.93049 -46.37676 14234 ft 302 kts 208°
2026-05-06 03:56 -22.94864 -46.38800 13688 ft 300 kts 208°
2026-05-06 03:57 -22.96671 -46.39921 13130 ft 298 kts 208°
2026-05-06 03:57 -22.98466 -46.41035 12591 ft 295 kts 208°
2026-05-06 03:57 -23.00236 -46.42135 12068 ft 293 kts 208°
2026-05-06 03:57 -23.01999 -46.43232 11814 ft 290 kts 208°
2026-05-06 03:58 -23.03761 -46.44328 11564 ft 295 kts 208°
2026-05-06 03:58 -23.05503 -46.45413 11315 ft 296 kts 208°
2026-05-06 03:58 -23.07278 -46.46519 11053 ft 293 kts 208°
2026-05-06 03:58 -23.09040 -46.47616 10792 ft 290 kts 208°
2026-05-06 03:59 -23.10786 -46.48704 10534 ft 288 kts 208°
2026-05-06 03:59 -23.12523 -46.49787 10279 ft 287 kts 208°
2026-05-06 03:59 -23.14261 -46.50871 10025 ft 287 kts 208°
2026-05-06 03:59 -23.15957 -46.51928 9779 ft 287 kts 208°
2026-05-06 04:00 -23.17659 -46.52988 9534 ft 286 kts 208°
2026-05-06 04:00 -23.19384 -46.54063 9288 ft 285 kts 208°
2026-05-06 04:00 -23.21101 -46.55142 9045 ft 284 kts 210°
2026-05-06 04:00 -23.22777 -46.56283 8803 ft 284 kts 212°
2026-05-06 04:01 -23.24420 -46.57459 8560 ft 283 kts 213°
2026-05-06 04:01 -23.26050 -46.58654 8315 ft 282 kts 213°
2026-05-06 04:01 -23.27642 -46.59834 8103 ft 278 kts 212°
2026-05-06 04:01 -23.29262 -46.60977 7926 ft 271 kts 212°
2026-05-06 04:02 -23.30819 -46.62065 7817 ft 258 kts 212°
2026-05-06 04:02 -23.32239 -46.63064 7639 ft 243 kts 212°
2026-05-06 04:02 -23.33627 -46.64047 7442 ft 232 kts 212°
2026-05-06 04:02 -23.34947 -46.64984 7334 ft 220 kts 212°
2026-05-06 04:03 -23.36184 -46.65863 7137 ft 207 kts 211°
2026-05-06 04:03 -23.37385 -46.66718 6797 ft 205 kts 211°
2026-05-06 04:03 -23.38570 -46.67561 6462 ft 202 kts 212°
2026-05-06 04:03 -23.39728 -46.68384 6287 ft 200 kts 212°
2026-05-06 04:04 -23.40920 -46.69232 6149 ft 204 kts 212°
2026-05-06 04:04 -23.42174 -46.69932 5983 ft 205 kts 194°
2026-05-06 04:04 -23.43570 -46.69808 5785 ft 208 kts 161°
2026-05-06 04:04 -23.44664 -46.68822 5672 ft 202 kts 130°
2026-05-06 04:05 -23.45229 -46.67530 5711 ft 202 kts 111°
2026-05-06 04:05 -23.45603 -46.65995 5600 ft 214 kts 111°
2026-05-06 04:05 -23.46251 -46.64517 5271 ft 216 kts 118°
2026-05-06 04:05 -23.46889 -46.63084 5029 ft 202 kts 109°
2026-05-06 04:06 -23.47100 -46.61653 4804 ft 182 kts 91°
2026-05-06 04:06 -23.46959 -46.60343 4598 ft 169 kts 82°
2026-05-06 04:06 -23.46716 -46.59113 4411 ft 166 kts 77°
2026-05-06 04:06 -23.46398 -46.57889 4187 ft 170 kts 73°
2026-05-06 04:07 -23.46060 -46.56664 3947 ft 167 kts 73°
2026-05-06 04:07 -23.45734 -46.55467 3716 ft 162 kts 73°
2026-05-06 04:07 -23.45418 -46.54302 3513 ft 166 kts 73°
2026-05-06 04:07 -23.45089 -46.53094 3298 ft 168 kts 73°
2026-05-06 04:08 -23.44758 -46.51875 3067 ft 165 kts 73°
2026-05-06 04:08 -23.44446 -46.50739 3104 ft 152 kts 72°
2026-05-06 04:08 -23.44145 -46.49652 3521 ft 151 kts 72°
2026-05-06 04:08 -23.43904 -46.48494 3881 ft 166 kts 85°
2026-05-06 04:09 -23.44221 -46.47231 4210 ft 180 kts 114°
2026-05-06 04:09 -23.44898 -46.46085 4728 ft 187 kts 120°
2026-05-06 04:09 -23.45647 -46.44801 5085 ft 208 kts 121°
2026-05-06 04:09 -23.46419 -46.43488 5468 ft 224 kts 122°
2026-05-06 04:10 -23.47286 -46.42010 5869 ft 240 kts 123°
2026-05-06 04:10 -23.48223 -46.40417 5970 ft 256 kts 122°
2026-05-06 04:10 -23.49190 -46.38766 5920 ft 258 kts 121°
2026-05-06 04:10 -23.50149 -46.37132 5939 ft 256 kts 121°
2026-05-06 04:11 -23.51118 -46.35479 5950 ft 261 kts 121°
2026-05-06 04:11 -23.52117 -46.33809 5946 ft 263 kts 124°
2026-05-06 04:11 -23.53519 -46.32600 5919 ft 260 kts 157°
2026-05-06 04:11 -23.55309 -46.32468 5954 ft 265 kts 187°
2026-05-06 04:12 -23.57028 -46.33298 5922 ft 281 kts 214°
2026-05-06 04:12 -23.58280 -46.34922 5943 ft 283 kts 241°
2026-05-06 04:12 -23.58777 -46.36992 5845 ft 284 kts 267°
2026-05-06 04:12 -23.58405 -46.39034 5831 ft 272 kts 293°
2026-05-06 04:13 -23.57299 -46.40600 5879 ft 254 kts 318°
2026-05-06 04:13 -23.55865 -46.41631 5900 ft 240 kts 329°
2026-05-06 04:13 -23.54350 -46.42360 5950 ft 232 kts 337°
2026-05-06 04:13 -23.52905 -46.42972 5964 ft 228 kts 340°
2026-05-06 04:14 -23.51367 -46.43577 5989 ft 237 kts 341°
2026-05-06 04:14 -23.49769 -46.44178 5999 ft 246 kts 342°
2026-05-06 04:14 -23.48154 -46.44770 5984 ft 245 kts 342°
2026-05-06 04:14 -23.46554 -46.45358 5976 ft 240 kts 342°
2026-05-06 04:15 -23.44976 -46.45937 5977 ft 238 kts 342°
2026-05-06 04:15 -23.43412 -46.46511 5992 ft 234 kts 342°
2026-05-06 04:15 -23.41937 -46.47053 5998 ft 232 kts 342°
2026-05-06 04:15 -23.40418 -46.47811 5965 ft 233 kts 323°
2026-05-06 04:16 -23.39483 -46.49239 5981 ft 236 kts 294°
2026-05-06 04:16 -23.39199 -46.50982 5989 ft 238 kts 276°
2026-05-06 04:16 -23.39208 -46.52807 5987 ft 239 kts 269°
2026-05-06 04:16 -23.39338 -46.54583 5987 ft 238 kts 265°
2026-05-06 04:17 -23.39545 -46.56371 5986 ft 238 kts 263°
2026-05-06 04:17 -23.39823 -46.58154 5982 ft 239 kts 260°
2026-05-06 04:17 -23.40153 -46.59929 5979 ft 239 kts 259°
2026-05-06 04:17 -23.40488 -46.61687 5977 ft 239 kts 259°
2026-05-06 04:18 -23.40827 -46.63474 5973 ft 239 kts 259°
2026-05-06 04:18 -23.41179 -46.65238 5960 ft 240 kts 256°
2026-05-06 04:18 -23.41637 -46.66988 5952 ft 239 kts 253°
2026-05-06 04:18 -23.42397 -46.68557 5942 ft 239 kts 230°
2026-05-06 04:19 -23.43774 -46.69514 5892 ft 237 kts 199°
2026-05-06 04:19 -23.45385 -46.69556 5694 ft 229 kts 170°
2026-05-06 04:19 -23.46796 -46.68873 5535 ft 217 kts 148°
2026-05-06 04:19 -23.47749 -46.67691 5345 ft 206 kts 121°
2026-05-06 04:20 -23.48104 -46.66222 5140 ft 195 kts 98°
2026-05-06 04:20 -23.48030 -46.64776 4953 ft 191 kts 85°
2026-05-06 04:20 -23.47804 -46.63344 4824 ft 192 kts 79°
2026-05-06 04:20 -23.47493 -46.61960 4672 ft 193 kts 75°
2026-05-06 04:21 -23.47115 -46.60549 4471 ft 182 kts 73°
2026-05-06 04:21 -23.46766 -46.59269 4282 ft 172 kts 73°
2026-05-06 04:21 -23.46437 -46.58058 4156 ft 161 kts 73°
2026-05-06 04:21 -23.46117 -46.56880 3984 ft 168 kts 73°
2026-05-06 04:22 -23.45781 -46.55644 3772 ft 175 kts 73°
2026-05-06 04:22 -23.45433 -46.54358 3527 ft 174 kts 72°
2026-05-06 04:22 -23.45091 -46.53099 3300 ft 178 kts 73°
2026-05-06 04:23 -23.44403 -46.50585 2780 ft 166 kts 72°
2026-05-06 04:23 -23.44082 -46.49398 2590 ft 160 kts 73°
2026-05-06 04:23 -23.43794 -46.48325 2481 ft 149 kts 72°
2026-05-06 04:23 -23.43534 -46.47388 2473 ft 111 kts 74°
2026-05-06 04:24 -23.43373 -46.46788 2473 ft 75 kts 73°
2026-05-06 04:24 -23.43232 -46.46369 2473 ft 39 kts 49°
2026-05-06 04:24 -23.43064 -46.46181 2473 ft 30 kts 44°
2026-05-06 04:24 -23.42917 -46.46135 2473 ft 18 kts 342°
2026-05-06 04:25 -23.42804 -46.46174 2473 ft 18 kts 342°
2026-05-06 04:25 -23.42677 -46.46216 2473 ft 20 kts 336°
2026-05-06 04:25 -23.42642 -46.46336 2473 ft 19 kts 256°
2026-05-06 04:25 -23.42678 -46.46476 2473 ft 23 kts 253°
2026-05-06 04:26 -23.42692 -46.46524 2473 ft 0 kts 253°
2026-05-06 04:27 -23.42700 -46.46553 2473 ft 10 kts 253°
2026-05-06 04:27 -23.42702 -46.46562 2473 ft 11 kts 253°
2026-05-06 04:28 -23.42735 -46.46683 2473 ft 19 kts 253°
2026-05-06 04:28 -23.42769 -46.46807 2473 ft 15 kts 253°
2026-05-06 04:29 -23.42799 -46.46918 2473 ft 16 kts 253°
2026-05-06 04:29 -23.42832 -46.47041 2473 ft 18 kts 253°
2026-05-06 04:29 -23.42845 -46.47090 2473 ft 19 kts 253°
2026-05-06 04:29 -23.42854 -46.47123 2473 ft 20 kts 253°
2026-05-06 04:30 -23.42868 -46.47175 2473 ft 20 kts 253°
2026-05-06 04:30 -23.42911 -46.47337 2473 ft 22 kts 254°
2026-05-06 04:30 -23.42952 -46.47490 2473 ft 20 kts 254°
2026-05-06 04:30 -23.42983 -46.47609 2473 ft 15 kts 254°
2026-05-06 04:31 -23.43005 -46.47695 2473 ft 11 kts 254°
2026-05-06 04:31 -23.43023 -46.47764 2473 ft 10 kts 254°
2026-05-06 04:31 -23.43047 -46.47850 2473 ft 14 kts 253°
2026-05-06 04:31 -23.43071 -46.47939 2473 ft 16 kts 253°
2026-05-06 04:32 -23.43106 -46.48064 2473 ft 19 kts 253°
2026-05-06 04:32 -23.43120 -46.48115 2473 ft 19 kts 253°
2026-05-06 04:32 -23.43162 -46.48266 2473 ft 12 kts 253°
2026-05-06 04:32 -23.43180 -46.48333 2473 ft 10 kts 253°
2026-05-06 04:33 -23.43193 -46.48378 2473 ft 13 kts 253°
2026-05-06 04:33 -23.43200 -46.48480 2473 ft 15 kts 276°
2026-05-06 04:34 -23.43198 -46.48499 2473 ft 14 kts 276°
2026-05-06 04:34 -23.43192 -46.48572 2473 ft 10 kts 275°
2026-05-06 04:34 -23.43189 -46.48608 2473 ft 0 kts 275°
2026-05-06 04:36 -23.43187 -46.48628 2473 ft 7 kts 276°
2026-05-06 04:36 -23.43182 -46.48684 2473 ft 13 kts 276°
2026-05-06 04:36 -23.43158 -46.48761 2473 ft 9 kts 338°
2026-05-06 04:37 -23.43127 -46.48767 2473 ft 9 kts 359°
2026-05-06 04:37 -23.43063 -46.48762 2473 ft 10 kts
2026-05-06 04:37 -23.43003 -46.48756 2473 ft 7 kts
2026-05-06 04:37 -23.42957 -46.48751 2473 ft 8 kts
2026-05-06 04:38 -23.42893 -46.48744 2473 ft 11 kts
2026-05-06 04:38 -23.42823 -46.48737 2473 ft 10 kts
2026-05-06 04:38 -23.42796 -46.48733 2473 ft 0 kts
2026-05-06 04:38 -23.42773 -46.48731 2473 ft 7 kts
2026-05-06 04:39 -23.42737 -46.48727 2473 ft 4 kts
2026-05-06 04:39 -23.42710 -46.48731 2473 ft 2 kts 316°
2026-05-06 04:39 -23.42707 -46.48738 2473 ft 2 kts 290°
2026-05-06 04:39 -23.42702 -46.48781 2473 ft 2 kts 276°
2026-05-06 04:40 -23.42702 -46.48788 2473 ft 3 kts 276°
2026-05-06 04:40 -23.42700 -46.48809 2473 ft 0 kts 275°